This is the latest recevied weather packets stored in our database for station/object KK4KTV-13. If no packets are shown the sender has not sent any weather packets the latest 10 day(s).
| Time | Temp. | Humidity | Pressure | Rain* | Wind** | Luminosity | Snow |
|---|---|---|---|---|---|---|---|
| 1788136349 | 76° F | 91% | 763.3 mmHg | 0 in | - | 0 W/m² | - |
| 1788136047 | 77° F | 89% | 763.2 mmHg | 0 in | - | 0 W/m² | - |
| 1788135747 | 78° F | 89% | 763.3 mmHg | 0 in | - | 1 W/m² | - |
| 1788135444 | 78° F | 88% | 763.3 mmHg | 0 in | - | 1 W/m² | - |
| 1788135143 | 79° F | 85% | 763.3 mmHg | 0 in | - | 2 W/m² | - |
| 1788134841 | 80° F | 84% | 763.4 mmHg | 0 in | - | 4 W/m² | - |
| 1788134535 | 81° F | 83% | 763.5 mmHg | 0 in | - | 7 W/m² | - |
| 1788134234 | 83° F | 81% | 763.6 mmHg | 0 in | - | 11 W/m² | - |
| 1788133929 | 84° F | 76% | 763.5 mmHg | 0 in | - | 15 W/m² | - |
| 1788133624 | 86° F | 74% | 763.5 mmHg | 0 in | - | 20 W/m² | - |
| 1788133320 | 88° F | 69% | 763.3 mmHg | 0 in | - | 24 W/m² | - |
| 1788133015 | 89° F | 68% | 763.4 mmHg | 0 in | - | 29 W/m² | - |
| 1788132711 | 89° F | 66% | 763.4 mmHg | 0 in | - | 33 W/m² | - |
| 1788132407 | 90° F | 65% | 763.5 mmHg | 0 in | - | 38 W/m² | - |
| 1788132102 | 89° F | 68% | 763.4 mmHg | 0 in | - | 44 W/m² | - |
| 1788131799 | 89° F | 62% | 763.4 mmHg | 0 in | - | 50 W/m² | - |
| 1788131498 | 88° F | 71% | 763.4 mmHg | 0 in | - | 55 W/m² | - |
| 1788131193 | 87° F | 70% | 763.5 mmHg | 0 in | - | 57 W/m² | - |
| 1788130893 | 89° F | 64% | 763.4 mmHg | 0 in | - | 59 W/m² | - |
| 1788130589 | 90° F | 65% | 763.3 mmHg | 0 in | - | 76 W/m² | - |
| 1788130289 | 93° F | 57% | 763.3 mmHg | 0 in | - | 58 W/m² | - |
| 1788129987 | 92° F | 53% | 763.4 mmHg | 0 in | - | 61 W/m² | - |
| 1788129684 | 91° F | 60% | 763.3 mmHg | 0 in | - | 63 W/m² | - |
| 1788129380 | 91° F | 59% | 763.3 mmHg | 0 in | - | 94 W/m² | - |
| 1788129075 | 91° F | 54% | 763.4 mmHg | 0 in | - | 129 W/m² | - |
* Rain latest hour (hover to see other rain measurements)
** Current wind speed in m/s (hover to see current wind gust speed)